When you browse on this site, cookies collect data to enhance your experience and personalize the content and advertising you see.
Visit our Privacy Policy to learn more. By continuing to use the site, you agree to this use of cookies and data.
EN

Hourly Weather Gogol

Today, 24 September, Thursday

Time Temperature Precipitation Wind Pressure Humidity
00:00 +15°C° 0 mm 1 mps 745 mmHg 67%
01:00 +15°C° 0 mm 1 mps 745 mmHg 68%
02:00 +14°C° 0 mm 1 mps 746 mmHg 68%
03:00 +14°C° 0 mm 1 mps 746 mmHg 70%
04:00 +13°C° 0 mm 1 mps 746 mmHg 71%
05:00 +13°C° 0 mm 1 mps 746 mmHg 72%
06:00 +13°C° 0 mm 1 mps 746 mmHg 73%
07:00 +14°C° 0 mm 1 mps 746 mmHg 69%
08:00 +16°C° 0 mm 1 mps 746 mmHg 65%
09:00 +17°C° 0 mm 2 mps 746 mmHg 60%
10:00 +19°C° 0 mm 2 mps 747 mmHg 55%
11:00 +20°C° 0 mm 2 mps 747 mmHg 50%
12:00 +23°C° 0 mm 2 mps 747 mmHg 45%
13:00 +22°C° 0 mm 3 mps 747 mmHg 43%
14:00 +24°C° 0 mm 3 mps 746 mmHg 42%
15:00 +24°C° 0 mm 3 mps 746 mmHg 40%
16:00 +23°C° 0 mm 2 mps 746 mmHg 45%
17:00 +21°C° 0 mm 2 mps 746 mmHg 49%
18:00 +19°C° 0 mm 2 mps 746 mmHg 54%
19:00 +18°C° 0 mm 2 mps 746 mmHg 55%
20:00 +17°C° 0 mm 2 mps 746 mmHg 57%
21:00 +16°C° 0 mm 2 mps 746 mmHg 58%
22:00 +16°C° 0 mm 2 mps 746 mmHg 59%
23:00 +15°C° 0 mm 2 mps 746 mmHg 60%

Tomorrow, 25 September, Friday

Time Temperature Precipitation Wind Pressure Humidity
00:00 +14°C° 0 mm 3 mps 746 mmHg 62%
01:00 +14°C° 0 mm 3 mps 746 mmHg 62%
02:00 +13°C° 0 mm 3 mps 746 mmHg 63%
03:00 +13°C° 0 mm 3 mps 746 mmHg 63%
04:00 +12°C° 0 mm 3 mps 746 mmHg 63%
05:00 +12°C° 0 mm 3 mps 746 mmHg 63%
06:00 +12°C° 0 mm 3 mps 746 mmHg 63%
07:00 +13°C° 0 mm 3 mps 746 mmHg 59%
08:00 +14°C° 0 mm 4 mps 746 mmHg 56%
09:00 +17°C° 0 mm 4 mps 746 mmHg 53%
10:00 +18°C° 0 mm 4 mps 746 mmHg 49%
11:00 +20°C° 0 mm 4 mps 746 mmHg 45%
12:00 +21°C° 0 mm 4 mps 746 mmHg 42%
13:00 +22°C° 0 mm 4 mps 746 mmHg 40%
14:00 +23°C° 0 mm 4 mps 746 mmHg 38%
15:00 +25°C° 0 mm 4 mps 746 mmHg 36%
16:00 +22°C° 0 mm 4 mps 746 mmHg 42%
17:00 +21°C° 0 mm 4 mps 746 mmHg 48%
18:00 +19°C° 0 mm 3 mps 745 mmHg 54%
19:00 +18°C° 0 mm 4 mps 745 mmHg 56%
20:00 +17°C° 0 mm 4 mps 746 mmHg 58%
21:00 +17°C° 0 mm 4 mps 746 mmHg 59%
22:00 +15°C° 0 mm 4 mps 746 mmHg 61%
23:00 +15°C° 0 mm 4 mps 746 mmHg 63%

Day after tomorrow, 26 September, Saturday

Time Temperature Precipitation Wind Pressure Humidity
00:00 +14°C° 0 mm 4 mps 746 mmHg 65%
01:00 +14°C° 0 mm 4 mps 746 mmHg 66%
02:00 +13°C° 0 mm 4 mps 746 mmHg 66%
03:00 +13°C° 0 mm 4 mps 746 mmHg 67%
04:00 +12°C° 0 mm 4 mps 746 mmHg 67%
05:00 +12°C° 0 mm 4 mps 746 mmHg 66%
06:00 +12°C° 0 mm 4 mps 746 mmHg 65%
07:00 +13°C° 0 mm 4 mps 746 mmHg 62%
08:00 +14°C° 0 mm 4 mps 746 mmHg 58%
09:00 +15°C° 0 mm 5 mps 746 mmHg 54%
10:00 +16°C° 0 mm 5 mps 747 mmHg 51%
11:00 +19°C° 0 mm 5 mps 747 mmHg 47%
12:00 +21°C° 0 mm 5 mps 747 mmHg 43%
13:00 +21°C° 0 mm 5 mps 747 mmHg 43%
14:00 +22°C° 0 mm 5 mps 747 mmHg 42%
15:00 +23°C° 0 mm 5 mps 747 mmHg 41%
16:00 +21°C° 0 mm 5 mps 746 mmHg 45%
17:00 +20°C° 0 mm 5 mps 746 mmHg 49%
18:00 +19°C° 0 mm 4 mps 746 mmHg 53%
19:00 +18°C° 0 mm 4 mps 746 mmHg 54%
20:00 +17°C° 0 mm 5 mps 746 mmHg 54%
21:00 +16°C° 0 mm 5 mps 746 mmHg 54%
22:00 +16°C° 0 mm 5 mps 747 mmHg 54%
23:00 +15°C° 0 mm 4 mps 747 mmHg 54%

27 September, Sunday

Time Temperature Precipitation Wind Pressure Humidity
00:00 +15°C° 0 mm 4 mps 747 mmHg 54%
01:00 +15°C° 0 mm 4 mps 747 mmHg 51%
02:00 +15°C° 0 mm 5 mps 747 mmHg 49%
03:00 +15°C° 0 mm 5 mps 747 mmHg 47%
04:00 +15°C° 0 mm 5 mps 747 mmHg 44%
05:00 +14°C° 0 mm 5 mps 748 mmHg 41%
06:00 +14°C° 0 mm 6 mps 748 mmHg 39%
07:00 +14°C° 0 mm 6 mps 748 mmHg 40%
08:00 +14°C° 0 mm 6 mps 748 mmHg 41%
09:00 +14°C° 0 mm 7 mps 748 mmHg 42%
10:00 +16°C° 0 mm 7 mps 748 mmHg 40%
11:00 +17°C° 0 mm 7 mps 748 mmHg 37%
12:00 +18°C° 0 mm 8 mps 748 mmHg 35%
13:00 +18°C° 0 mm 8 mps 748 mmHg 35%
14:00 +20°C° 0 mm 8 mps 748 mmHg 34%
15:00 +20°C° 0 mm 8 mps 748 mmHg 34%
16:00 +18°C° 0 mm 7 mps 747 mmHg 36%
17:00 +17°C° 0 mm 6 mps 747 mmHg 38%
18:00 +16°C° 0 mm 6 mps 747 mmHg 40%
19:00 +16°C° 0 mm 6 mps 747 mmHg 39%
20:00 +15°C° 0 mm 6 mps 747 mmHg 39%
21:00 +15°C° 0 mm 7 mps 747 mmHg 38%
22:00 +15°C° 0 mm 7 mps 747 mmHg 38%
23:00 +15°C° 0 mm 7 mps 747 mmHg 39%

28 September, Monday

Time Temperature Precipitation Wind Pressure Humidity
00:00 +15°C° 0 mm 7 mps 747 mmHg 39%
01:00 +15°C° 0 mm 7 mps 747 mmHg 39%
02:00 +15°C° 0 mm 7 mps 747 mmHg 38%
03:00 +15°C° 0 mm 7 mps 747 mmHg 37%
04:00 +14°C° 0 mm 7 mps 747 mmHg 37%
05:00 +14°C° 0 mm 7 mps 748 mmHg 37%
06:00 +14°C° 0 mm 6 mps 748 mmHg 37%
07:00 +13°C° 0.4 mm 6 mps 748 mmHg 46%
08:00 +13°C° 0.4 mm 6 mps 748 mmHg 54%
09:00 +11°C° 0.4 mm 6 mps 748 mmHg 62%
10:00 +11°C° 0.7 mm 6 mps 749 mmHg 68%
11:00 +11°C° 0.7 mm 6 mps 749 mmHg 73%
12:00 +11°C° 0.7 mm 6 mps 749 mmHg 79%
13:00 +11°C° 0 mm 6 mps 750 mmHg 77%
14:00 +11°C° 0 mm 6 mps 750 mmHg 75%
15:00 +12°C° 0 mm 5 mps 750 mmHg 73%
16:00 +12°C° 0 mm 5 mps 750 mmHg 71%
17:00 +12°C° 0 mm 4 mps 750 mmHg 68%
18:00 +13°C° 0 mm 4 mps 750 mmHg 65%
19:00 +12°C° 0 mm 4 mps 750 mmHg 65%
20:00 +12°C° 0 mm 3 mps 751 mmHg 64%
21:00 +11°C° 0 mm 3 mps 751 mmHg 63%
22:00 +11°C° 0 mm 3 mps 751 mmHg 63%
23:00 +11°C° 0 mm 3 mps 751 mmHg 63%

29 September, Tuesday

Time Temperature Precipitation Wind Pressure Humidity
00:00 +10°C° 0 mm 3 mps 751 mmHg 62%
01:00 +10°C° 0 mm 3 mps 751 mmHg 60%
02:00 +10°C° 0 mm 3 mps 751 mmHg 58%
03:00 +10°C° 0 mm 4 mps 751 mmHg 56%
04:00 +10°C° 0 mm 4 mps 751 mmHg 54%
05:00 +10°C° 0 mm 4 mps 751 mmHg 52%
06:00 +10°C° 0 mm 4 mps 751 mmHg 50%
07:00 +10°C° 0 mm 5 mps 751 mmHg 49%
08:00 +12°C° 0 mm 5 mps 751 mmHg 48%
09:00 +13°C° 0 mm 5 mps 751 mmHg 48%
10:00 +14°C° 0 mm 6 mps 751 mmHg 45%
11:00 +15°C° 0 mm 6 mps 751 mmHg 42%
12:00 +17°C° 0 mm 6 mps 751 mmHg 40%
13:00 +17°C° 0 mm 6 mps 751 mmHg 38%
14:00 +19°C° 0 mm 6 mps 750 mmHg 36%
15:00 +19°C° 0 mm 6 mps 750 mmHg 34%
16:00 +17°C° 0 mm 6 mps 750 mmHg 36%
17:00 +16°C° 0 mm 5 mps 749 mmHg 38%
18:00 +15°C° 0 mm 5 mps 749 mmHg 41%
19:00 +15°C° 0 mm 5 mps 749 mmHg 41%
20:00 +14°C° 0 mm 6 mps 749 mmHg 40%
21:00 +14°C° 0 mm 6 mps 749 mmHg 40%
22:00 +13°C° 0 mm 6 mps 749 mmHg 41%
23:00 +13°C° 0 mm 6 mps 749 mmHg 41%
Show more